This demonstration page uses our WeatherBlox Daily Observations layout. Learn more.

39.92423, -83.80882

Hourly Observations for April 13, 2015

Temp ( °F °C ) Dew Point ( °F °C ) Humidity (%) Winds ( mph kmh ) Pressure ( in mb ) Visibility ( mi km ) Precip ( " mm )
12:56 am 00:56 Clear 58 14.4 40 4.4 51 51 SE 7 11 30.07 1018 8 12.87472 0 0
1:56 am 01:56 Clear 57 13.8 40 4.4 53 53 SE 6 9 30.08 1019 7 11.26538 0 0
2:56 am 02:56 Clear 54 12.2 38 3.3 55 55 ESE 5 7 30.08 1019 8 12.87472 0 0
3:56 am 03:56 Clear 52 11.1 39 3.8 61 61 ESE 7 11 30.08 1019 7 11.26538 0 0
4:56 am 04:56 Clear 58 14.4 38 3.3 48 48 S 10 17 30.06 1018 8 12.87472 0 0
5:56 am 05:56 Clear 59 15 44 6.6 57 57 SSW 10 17 30.07 1018 8 12.87472 0 0
6:56 am 06:56 Clear 60 15.5 49 9.4 67 67 SSW 12 19 30.1 1019 7 11.26538 0 0
7:56 am 07:56 Hazy 62 16.6 51 10.5 67 67 SSW 12 19 30.11 1020 6 9.65604 0 0
8:56 am 08:56 Hazy 65 18.3 53 11.6 65 65 SSW 14 22 30.11 1020 6 9.65604 0 0
9:56 am 09:56 Hazy 67 19.4 53 11.6 61 61 SSW 18 30 30.1 1019 5 8.0467 0 0
10:56 am 10:56 Hazy 71 21.6 55 12.7 57 57 SSW 22 35 30.09 1019 6 9.65604 0 0
11:56 am 11:56 Hazy 73 22.7 57 13.8 57 57 SW 22 35 30.08 1019 6 9.65604 0 0
12:56 pm 12:56 Hazy 75 23.8 58 14.4 56 56 SSW 17 28 30.06 1018 6 9.65604 0 0
1:56 pm 13:56 Hazy 77 25 59 15 54 54 SW 20 31 30.03 1017 6 9.65604 0 0
2:56 pm 14:56 Hazy 78 25.5 59 15 52 52 SW 20 31 30.02 1017 6 9.65604 0 0
3:56 pm 15:56 Mostly Cloudy with Haze 78 25.5 59 15 52 52 WSW 18 30 30.01 1016 6 9.65604 0 0
4:56 pm 16:56 Hazy 78 25.5 59 15 52 52 SW 16 26 29.98 1015 6 9.65604 0 0
5:56 pm 17:56 Mostly Cloudy with Thunderstorms 76 24.4 59 15 56 56 WNW 16 26 30.01 1016 6 9.65604 0 0
6:06 pm 18:06 Mostly Cloudy with Thunderstorms 72 22 64 18 78 78 W 20 31 30.03 1017 6 9.65604 0 0
6:16 pm 18:16 Mostly Cloudy with Haze 68 20 63 17 83 83 NW 15 24 30.03 1017 5 8.0467 0 0
6:29 pm 18:29 Cloudy with Nearby Thunderstorms 66 19 63 17 88 88 NW 12 19 30.03 1017 5 8.0467 0 0
6:56 pm 18:56 Cloudy with Heavy Thunderstorms 65 18.3 63 17.2 93 93 W 13 20 30.07 1018 1.5 2.41401 0.06 1.524
6:59 pm 18:59 Cloudy with Heavy Thunderstorms 64 18 63 17 94 94 WNW 10 17 30.09 1019 1.5 2.41401 0.02 0.508
7:04 pm 19:04 Mostly Cloudy with Heavy Rain 64 18 63 17 94 94 NW 10 17 30.03 1017 1 1.60934 0.06 1.524
7:15 pm 19:15 Cloudy with Rain 64 18 63 17 94 94 NW 12 19 30.03 1017 1.5 2.41401 0.1 2.54
7:23 pm 19:23 Cloudy with Light Rain 63 17 63 17 100 100 NW 14 22 30.06 1018 2.5 4.02335 0.11 2.794
7:30 pm 19:30 Cloudy with Light Rain 63 17 63 17 100 100 NNW 10 17 30.06 1018 4 6.43736 0.11 2.794
7:38 pm 19:38 Mostly Cloudy with Mist and Fog 63 17 61 16 94 94 NW 13 20 30.06 1018 5 8.0467 0.11 2.794
7:56 pm 19:56 Mostly Cloudy with Mist and Fog 62 16.6 60 15.5 93 93 NW 12 19 30.07 1018 5 8.0467 0.11 2.794
8:23 pm 20:23 Cloudy 61 16 59 15 94 94 NW 9 15 30.09 1019 7 11.26538 0 0
8:56 pm 20:56 Mostly Cloudy 61 16.1 58 14.4 90 90 NW 9 15 30.08 1019 7 11.26538 0 0
9:07 pm 21:07 Mostly Cloudy 61 16 57 14 88 88 NW 9 15 30.09 1019 7 11.26538 0 0
9:56 pm 21:56 Cloudy 61 16.1 58 14.4 90 90 NNW 9 15 30.11 1020 7 11.26538 0 0
10:56 pm 22:56 Mostly Cloudy 60 15.5 57 13.8 90 90 N 8 13 30.12 1020 7 11.26538 0 0
11:56 pm 23:56 Cloudy 59 15 55 12.7 86 86 NE 7 11 30.14 1021 7 11.26538 0 0

Powered by AerisWeather